Radiation Dose at Monitoring Post of Fukushima Daini Nuclear Power Station
Date,Time,MP-1(microSv/h),MP-2(microSv/h),MP-3(microSv/h),MP-4(microSv/h),MP-5(microSv/h),MP-6(microSv/h),MP-7(microSv/h),Wind Direction,Wind Velocity(m/s),Rain
2017/04/24,00:00,0.376,0.230,0.393,0.364,0.328,0.191,0.162,east,0.9,No
2017/04/24,00:10,0.377,0.229,0.392,0.361,0.331,0.192,0.162,east,0.8,No
2017/04/24,00:20,0.378,0.231,0.394,0.365,0.329,0.190,0.162,east-southeast,1.6,No
2017/04/24,00:30,0.378,0.230,0.393,0.363,0.331,0.192,0.159,east,1.3,No
2017/04/24,00:40,0.379,0.229,0.394,0.364,0.331,0.191,0.162,east-northeast,1.5,No
2017/04/24,00:50,0.377,0.229,0.393,0.365,0.330,0.192,0.162,east,1.4,No
2017/04/24,01:00,0.377,0.231,0.393,0.365,0.331,0.191,0.162,east-southeast,1.4,No
2017/04/24,01:10,0.378,0.230,0.395,0.364,0.329,0.191,0.162,east,1.1,No
2017/04/24,01:20,0.377,0.231,0.395,0.363,0.330,0.191,0.161,northeast,0.8,No
2017/04/24,01:30,0.377,0.232,0.394,0.362,0.332,0.191,0.162,east,0.9,No
2017/04/24,01:40,0.378,0.230,0.393,0.363,0.331,0.191,0.161,-,CALM,No
2017/04/24,01:50,0.378,0.230,0.393,0.363,0.329,0.192,0.162,west-southwest,0.5,No
2017/04/24,02:00,0.378,0.231,0.395,0.363,0.331,0.192,0.162,-,CALM,No
2017/04/24,02:10,0.377,0.231,0.394,0.364,0.330,0.190,0.162,-,CALM,No
2017/04/24,02:20,0.377,0.229,0.393,0.364,0.330,0.191,0.162,-,CALM,No
2017/04/24,02:30,0.378,0.230,0.394,0.364,0.330,0.191,0.162,south-southwest,1.2,No
2017/04/24,02:40,0.379,0.231,0.395,0.364,0.330,0.193,0.162,south-southwest,1.2,No
2017/04/24,02:50,0.378,0.231,0.393,0.365,0.330,0.190,0.161,south-southwest,1.7,No
2017/04/24,03:00,0.378,0.231,0.394,0.364,0.330,0.192,0.161,southwest,1.4,No
2017/04/24,03:10,0.380,0.230,0.392,0.365,0.332,0.192,0.162,south-southwest,1.5,No
2017/04/24,03:20,0.376,0.230,0.394,0.364,0.330,0.192,0.162,southwest,1.5,No
2017/04/24,03:30,0.378,0.232,0.394,0.364,0.330,0.192,0.162,south-southwest,1.3,No
2017/04/24,03:40,0.380,0.230,0.392,0.365,0.329,0.191,0.162,south-southwest,0.8,No
2017/04/24,03:50,0.378,0.230,0.394,0.365,0.330,0.191,0.162,south,1.2,No
2017/04/24,04:00,0.378,0.230,0.395,0.365,0.332,0.193,0.162,south-southwest,1.8,No
2017/04/24,04:10,0.379,0.231,0.393,0.364,0.331,0.192,0.161,southwest,1.6,No
2017/04/24,04:20,0.377,0.230,0.394,0.366,0.331,0.193,0.162,southwest,2.4,No
2017/04/24,04:30,0.377,0.230,0.395,0.364,0.331,0.192,0.161,south-southwest,2.0,No
2017/04/24,04:40,0.379,0.231,0.393,0.363,0.331,0.192,0.162,south,2.0,No
2017/04/24,04:50,0.377,0.231,0.394,0.366,0.332,0.191,0.162,south,2.2,No
2017/04/24,05:00,0.378,0.230,0.395,0.364,0.329,0.192,0.162,south-southwest,1.9,No
2017/04/24,05:10,0.379,0.230,0.393,0.365,0.332,0.193,0.162,south-southwest,2.5,No
2017/04/24,05:20,0.379,0.230,0.393,0.365,0.331,0.192,0.162,south-southwest,2.5,No
2017/04/24,05:30,0.377,0.231,0.394,0.364,0.331,0.191,0.162,south-southwest,2.2,No
2017/04/24,05:40,0.379,0.230,0.395,0.363,0.332,0.191,0.161,south-southwest,1.8,No
2017/04/24,05:50,0.378,0.230,0.393,0.366,0.330,0.192,0.163,south,1.3,No
2017/04/24,06:00,0.378,0.232,0.395,0.363,0.330,0.191,0.162,south-southwest,1.5,No
2017/04/24,06:10,0.379,0.231,0.394,0.363,0.332,0.192,0.162,south-southwest,1.9,No
2017/04/24,06:20,0.377,0.230,0.393,0.366,0.330,0.190,0.162,south,1.4,No
2017/04/24,06:30,0.379,0.231,0.394,0.364,0.329,0.192,0.163,south-southeast,0.8,No
2017/04/24,06:40,0.378,0.229,0.393,0.363,0.330,0.191,0.162,south,1.8,No
2017/04/24,06:50,0.376,0.230,0.394,0.365,0.330,0.192,0.162,south,2.2,No
2017/04/24,07:00,0.378,0.229,0.394,0.363,0.331,0.191,0.163,southeast,1.8,No
2017/04/24,07:10,0.379,0.230,0.393,0.363,0.330,0.192,0.162,south-southwest,1.9,No
2017/04/24,07:20,0.375,0.229,0.393,0.364,0.329,0.192,0.161,south-southeast,1.1,No
2017/04/24,07:30,0.377,0.231,0.394,0.363,0.330,0.191,0.162,southeast,1.2,No
2017/04/24,07:40,0.376,0.230,0.393,0.365,0.328,0.192,0.161,south-southeast,0.8,No
2017/04/24,07:50,0.378,0.230,0.393,0.363,0.331,0.192,0.162,southeast,1.1,No
2017/04/24,08:00,0.377,0.229,0.396,0.364,0.329,0.191,0.162,south-southeast,1.2,No
2017/04/24,08:10,0.377,0.228,0.391,0.365,0.329,0.191,0.162,south-southeast,1.1,No
2017/04/24,08:20,0.378,0.230,0.394,0.362,0.329,0.191,0.162,east-southeast,1.5,No
2017/04/24,08:30,0.375,0.230,0.392,0.365,0.327,0.191,0.162,southeast,0.8,No
2017/04/24,08:40,0.378,0.230,0.391,0.363,0.329,0.191,0.161,southeast,2.1,No
2017/04/24,08:50,0.375,0.229,0.394,0.364,0.329,0.191,0.161,southeast,1.9,No
2017/04/24,09:00,0.378,0.228,0.393,0.364,0.330,0.191,0.162,east,1.9,No
2017/04/24,09:10,0.375,0.230,0.395,0.362,0.329,0.191,0.161,southeast,1.1,No
2017/04/24,09:20,0.379,0.229,0.393,0.363,0.330,0.191,0.162,southeast,2.7,No
2017/04/24,09:30,0.374,0.229,0.393,0.360,0.328,0.191,0.161,south-southeast,2.4,No
2017/04/24,09:40,0.377,0.229,0.394,0.364,0.330,0.192,0.162,south-southeast,1.9,No
2017/04/24,09:50,0.375,0.228,0.393,0.362,0.328,0.191,0.162,south,4.7,No
2017/04/24,10:00,0.377,0.229,0.394,0.363,0.330,0.192,0.164,south,3.8,No
2017/04/24,10:10,0.377,0.228,0.394,0.362,0.328,0.190,0.163,southeast,4.1,No
2017/04/24,10:20,0.373,0.229,0.394,0.364,0.330,0.191,0.163,southeast,4.8,No
2017/04/24,10:30,0.377,0.230,0.393,0.362,0.327,0.190,0.163,southeast,3.5,No
2017/04/24,10:40,0.374,0.229,0.392,0.362,0.331,0.191,0.162,southeast,3.6,No
2017/04/24,10:50,0.376,0.230,0.392,0.363,0.328,0.190,0.162,southeast,3.7,No
2017/04/24,11:00,0.377,0.229,0.391,0.363,0.332,0.192,0.164,southeast,3.6,No
2017/04/24,11:10,0.374,0.230,0.390,0.364,0.329,0.191,0.164,southeast,2.5,No
2017/04/24,11:20,0.377,0.231,0.393,0.360,0.331,0.192,0.163,east-southeast,3.9,No
2017/04/24,11:30,0.374,0.229,0.390,0.366,0.328,0.190,0.163,southeast,3.2,No
2017/04/24,11:40,0.378,0.230,0.394,0.363,0.332,0.192,0.163,southeast,2.5,No
2017/04/24,11:50,0.378,0.229,0.392,0.363,0.329,0.190,0.164,southeast,2.7,No
2017/04/24,12:00,0.374,0.230,0.393,0.364,0.330,0.192,0.163,south-southeast,2.2,No
2017/04/24,12:10,0.378,0.229,0.394,0.362,0.331,0.190,0.164,southeast,2.5,No
2017/04/24,12:20,0.375,0.231,0.391,0.365,0.330,0.191,0.162,southeast,2.5,No
2017/04/24,12:30,0.378,0.229,0.394,0.363,0.329,0.191,0.164,east-southeast,2.3,No
2017/04/24,12:40,0.379,0.230,0.392,0.364,0.328,0.192,0.163,southeast,2.3,No
2017/04/24,12:50,0.377,0.229,0.391,0.361,0.332,0.191,0.164,southeast,2.5,No
2017/04/24,13:00,0.379,0.231,0.396,0.364,0.328,0.191,0.163,south-southeast,1.7,No
2017/04/24,13:10,0.375,0.229,0.391,0.364,0.331,0.192,0.163,southeast,2.8,No
2017/04/24,13:20,0.379,0.231,0.392,0.363,0.328,0.192,0.164,southeast,3.6,No
2017/04/24,13:30,0.376,0.231,0.394,0.366,0.332,0.192,0.163,south-southeast,2.1,No
2017/04/24,13:40,0.378,0.231,0.393,0.363,0.329,0.191,0.164,southeast,2.2,No
2017/04/24,13:50,0.378,0.230,0.395,0.366,0.331,0.192,0.163,south-southeast,2.7,No
2017/04/24,14:00,0.378,0.230,0.392,0.362,0.330,0.191,0.163,south-southeast,2.5,No
2017/04/24,14:10,0.378,0.229,0.394,0.366,0.328,0.192,0.161,south-southeast,3.2,No
2017/04/24,14:20,0.375,0.232,0.395,0.363,0.331,0.191,0.164,south-southeast,2.5,No
2017/04/24,14:30,0.379,0.230,0.390,0.365,0.329,0.192,0.164,south,3.9,No
2017/04/24,14:40,0.377,0.231,0.395,0.364,0.332,0.191,0.164,south,3.4,No
2017/04/24,14:50,0.378,0.230,0.391,0.364,0.329,0.191,0.164,south-southeast,2.0,No
2017/04/24,15:00,0.378,0.231,0.394,0.365,0.329,0.191,0.165,south,7.0,No
2017/04/24,15:10,0.378,0.229,0.396,0.365,0.331,0.191,0.165,south,8.5,No
2017/04/24,15:20,0.379,0.231,0.394,0.364,0.329,0.192,0.166,south-southeast,9.1,No
2017/04/24,15:30,0.378,0.231,0.395,0.366,0.332,0.191,0.164,south,9.1,No
2017/04/24,15:40,0.379,0.230,0.397,0.365,0.329,0.193,0.165,south-southeast,9.4,No
2017/04/24,15:50,0.378,0.231,0.396,0.366,0.331,0.192,0.165,south,9.2,No
2017/04/24,16:00,0.378,0.232,0.397,0.366,0.328,0.192,0.165,south-southeast,8.4,No
2017/04/24,16:10,0.378,0.233,0.394,0.366,0.332,0.191,0.165,south,10.4,No
2017/04/24,16:20,0.379,0.231,0.398,0.368,0.328,0.193,0.165,south-southeast,10.7,No
2017/04/24,16:30,0.378,0.230,0.396,0.366,0.331,0.192,0.165,south,11.1,No
2017/04/24,16:40,0.377,0.232,0.397,0.366,0.328,0.193,0.165,south,10.8,No
2017/04/24,16:50,0.380,0.231,0.396,0.366,0.331,0.192,0.165,south,11.0,No
2017/04/24,17:00,0.378,0.231,0.396,0.366,0.329,0.192,0.164,south,11.0,No
2017/04/24,17:10,0.379,0.231,0.399,0.367,0.333,0.192,0.165,south,9.5,No
2017/04/24,17:20,0.379,0.231,0.395,0.366,0.329,0.192,0.166,south,9.3,No
2017/04/24,17:30,0.379,0.231,0.396,0.365,0.332,0.192,0.164,south,9.6,No
2017/04/24,17:40,0.378,0.231,0.397,0.365,0.330,0.192,0.165,south,10.5,No
2017/04/24,17:50,0.379,0.231,0.394,0.366,0.331,0.193,0.166,south,9.0,No
2017/04/24,18:00,0.379,0.231,0.396,0.366,0.331,0.192,0.165,south,9.0,No
2017/04/24,18:10,0.377,0.231,0.396,0.366,0.330,0.192,0.166,south,8.7,No
2017/04/24,18:20,0.379,0.231,0.395,0.365,0.332,0.192,0.164,south,9.5,No
2017/04/24,18:30,0.378,0.232,0.396,0.366,0.331,0.193,0.166,south,10.1,No
2017/04/24,18:40,0.379,0.230,0.396,0.365,0.331,0.192,0.167,south,9.5,No
2017/04/24,18:50,0.378,0.231,0.395,0.364,0.333,0.191,0.165,south,8.7,No
2017/04/24,19:00,0.378,0.232,0.396,0.367,0.332,0.192,0.164,south,8.6,No
2017/04/24,19:10,0.380,0.231,0.395,0.364,0.332,0.192,0.166,south,10.1,No
2017/04/24,19:20,0.378,0.232,0.395,0.366,0.330,0.192,0.165,south,9.2,No
2017/04/24,19:30,0.379,0.231,0.396,0.367,0.330,0.192,0.166,south,9.6,No
2017/04/24,19:40,0.380,0.231,0.396,0.365,0.331,0.192,0.164,south,10.5,No
2017/04/24,19:50,0.378,0.230,0.397,0.367,0.332,0.191,0.166,south,9.2,No
2017/04/24,20:00,0.380,0.231,0.397,0.365,0.328,0.192,0.165,south,9.5,No
2017/04/24,20:10,0.378,0.232,0.395,0.364,0.331,0.192,0.165,south,10.3,No
2017/04/24,20:20,0.378,0.230,0.395,0.368,0.331,0.192,0.165,south,9.1,No
2017/04/24,20:30,0.380,0.231,0.395,0.366,0.330,0.192,0.166,south,8.8,No
2017/04/24,20:40,0.377,0.231,0.394,0.366,0.332,0.192,0.165,south,9.2,No
2017/04/24,20:50,0.379,0.230,0.395,0.367,0.330,0.192,0.165,south,8.8,No
2017/04/24,21:00,0.379,0.231,0.396,0.365,0.329,0.193,0.166,south,9.0,No
2017/04/24,21:10,0.378,0.233,0.394,0.366,0.332,0.191,0.165,south,8.2,No
2017/04/24,21:20,0.379,0.231,0.397,0.367,0.330,0.192,0.164,south-southwest,7.3,No
2017/04/24,21:30,0.378,0.231,0.395,0.365,0.330,0.192,0.167,south-southwest,9.3,No
2017/04/24,21:40,0.378,0.231,0.395,0.365,0.332,0.192,0.166,south-southwest,9.2,No
2017/04/24,21:50,0.380,0.231,0.398,0.366,0.330,0.192,0.166,south-southwest,9.0,No
2017/04/24,22:00,0.378,0.230,0.395,0.364,0.330,0.192,0.165,south-southwest,8.7,No
2017/04/24,22:10,0.379,0.231,0.394,0.365,0.331,0.192,0.165,south-southwest,8.9,No
2017/04/24,22:20,0.378,0.232,0.398,0.366,0.329,0.192,0.166,south-southwest,9.0,No
2017/04/24,22:30,0.376,0.231,0.395,0.364,0.331,0.192,0.165,south-southwest,10.0,No
2017/04/24,22:40,0.378,0.231,0.393,0.366,0.331,0.192,0.165,south-southwest,10.1,No
2017/04/24,22:50,0.378,0.231,0.396,0.365,0.328,0.192,0.164,south-southwest,9.8,No
2017/04/24,23:00,0.377,0.231,0.396,0.364,0.332,0.192,0.166,south-southwest,10.2,No
2017/04/24,23:10,0.379,0.229,0.395,0.366,0.330,0.191,0.166,south-southwest,10.4,No
2017/04/24,23:20,0.378,0.232,0.397,0.367,0.329,0.192,0.165,south-southwest,8.5,No
2017/04/24,23:30,0.379,0.231,0.396,0.366,0.331,0.192,0.166,south-southwest,8.8,No
2017/04/24,23:40,0.378,0.231,0.395,0.367,0.331,0.192,0.166,south-southwest,7.1,No
2017/04/24,23:50,0.377,0.230,0.398,0.365,0.329,0.193,0.166,south-southwest,7.1,No
